Location: Miles
(41.4492°N, 81.6087°W)
Time: 04:49:20
(UTC+00:00)

Courier 1B - Visible Passes

Search period start: 08 December 2025 00:00
Search period end: 18 December 2025 00:00
Orbit: 962 x 1208 km, 28.3° (Epoch: 07 December)

Date Brightness Start Highest point End Pass type
(mag) Time Alt. Az. Time Alt. Az. Time Alt. Az.
08 Dec 10.0 08:42:22 13° SE 08:42:22 13° SE 08:43:07 10° SE visible
08 Dec 9.2 10:29:15 16° SW 10:30:56 18° SSW 10:35:12 10° SSE visible
09 Dec 9.3 09:38:50 19° S 09:38:50 19° S 09:41:58 10° SSE visible
10 Dec 10.0 08:48:25 11° SE 08:48:25 11° SE 08:48:36 10° SE visible
10 Dec 9.5 10:35:19 11° SW 10:36:40 12° SSW 10:38:48 10° S visible
11 Dec 9.6 09:44:55 13° S 09:44:55 13° S 09:46:28 10° SSE visible
